KAJG

Details ICAO KAJG
Name MT CARMEL MUNI
Region United States
Timezone America/Chicago (UTC-5.0)
Plans Departing 0
Arriving 0
Stats Elevation 429 ft / 131 m (AMSL)
Location 38.606525° -87.726627°
Runways 2
Magnetic Variation 3.423° W
Sunrise 2018-05-24 10:33:47 UTC / 2018-05-24 05:33:47 Local
Sunset 2018-05-25 01:04:37 UTC / 2018-05-24 20:04:37 Local
Advertisement - Login to hide

Runways

ID Width Length Bearing (true) Bearing (mag) Surface Threshold Offset Overrun Length
04 100 ft / 30 m 4,000 ft / 1,219 m 40.62° 44.04° Asphalt 0 ft / 0 m 0 ft / 0 m
13 75 ft / 23 m 4,497 ft / 1,371 m 130.87° 134.29° Asphalt 0 ft / 0 m 0 ft / 0 m
22 100 ft / 30 m 4,000 ft / 1,219 m 220.63° 224.05° Asphalt 0 ft / 0 m 0 ft / 0 m
31 75 ft / 23 m 4,497 ft / 1,371 m 310.88° 314.30° Asphalt 0 ft / 0 m 0 ft / 0 m

Map

Weather


0- 5 10 15 20 25 30 35+ Temperature / ° C

Clouds and Precipitation
Forecast for 2018-05-24 06:00 UTC. Updated 2 hours ago

Ground ~20,000 ft ~40,000 ft Winds

METAR

KAJG 240655Z AUTO 07003KT 10SM CLR 18/16 A3012 RMK AO2 T01840156

TAF

Not found

Frequencies

Recorded 134.90 MHz AWOS 3
Approach 125.60 MHz EVANSVILLE APP/DEP
Unicom 122.70 MHz CTAF/UNICOM
Warning: Do not use this data for real-world aviation or navigation. No guarantee of current accuracy is given.